Flag for Canada Weather past 2 weeks in Eureka, Nunavut Territory, Canada

Now
36 °F

Partly sunny.


Feels Like: 29 °F
Forecast: 36 / 43 °F
Wind: 9 mph from South

Location: Eureka

Current Time: Jul 24, 2014 at 3:40:09 AM

Latest Report: Jul 24, 2014 at 3:00 AM


Visibility: 15 mi

Pressure: 29.82 "Hg

Humidity: 75%

Dew point: 28 °F

Location of EurekaLocation

Historic Weather in Eureka — Graph

°F

Eureka temperature yesterday

Maximum temperature yesterday: 46 °F (at 10:00 AM)
Minimum temperature yesterday: 37 °F (at 9:00 PM)
Average temperature yesterday: 41 °F

Past Weeks' High & Low Weather Summary

 TemperatureHumidityPressure
High55 °F (Jul 18, 5:00 PM)87% (Jul 17, 8:00 AM)30.13 "Hg (Jul 17, 8:00 AM)
Low36 °F (Jul 10, 2:00 AM)44% (Jul 15, 7:00 PM)29.52 "Hg (Jul 22, 10:00 PM)
Average43 °F69%29.77 "Hg
* Reported Jul 9 2:00 AM — Jul 24 2:00 AM, Eureka, Weather by CustomWeather, © 2014

Note: Actual official high and low records may vary slightly from our data, if they occured in-between our weather recording intervals... More about our weather records

Advertising

Eureka weather history for previous 24 hours

 ConditionsComfort  
Time TempWeatherWind HumidityBarometerVisibility
2:00 AM
Jul 24
36 °FBroken clouds.14 mph75%29.79 "Hg15 mi
1:00 AM36 °FScattered clouds.15 mph75%29.77 "Hg15 mi
10:00 PM
Jul 23
39 °FPartly sunny.16 mph65%29.74 "Hg15 mi
9:00 PM37 °FPartly sunny.20 mph70%29.74 "Hg15 mi
8:00 PM39 °FPartly sunny.12 mph65%29.73 "Hg15 mi
7:00 PM39 °FPartly sunny.17 mph70%29.71 "Hg15 mi
6:00 PM39 °FPartly sunny.17 mph70%29.70 "Hg15 mi
5:00 PM39 °FMostly cloudy.17 mph70%29.70 "Hg15 mi
4:00 PM39 °FBroken clouds.18 mph70%29.69 "Hg15 mi
3:00 PM39 °FPartly sunny.23 mph70%29.66 "Hg15 mi
2:00 PM39 °FMostly cloudy.22 mph70%29.66 "Hg15 mi
1:00 PM41 °FMostly cloudy.18 mph70%29.65 "Hg15 mi
12:00 PM43 °FPartly sunny.21 mph61%29.63 "Hg15 mi
11:00 AM43 °FPartly sunny.22 mph71%29.61 "Hg15 mi
10:00 AM46 °FPartly sunny.7 mph50%29.61 "Hg15 mi
9:00 AM43 °FPartly sunny.26 mph71%29.58 "Hg15 mi
8:00 AM43 °FScattered clouds.21 mph71%29.57 "Hg15 mi
Weather by CustomWeather, © 2014

See weather overviewHow to use our weather pages